• In Spain
  • List of Countries
  • For 7 days
  • Water Temperature
  • Satellite Maps
  • Weather Map
  • Weather Widgets
  • user-avatar
    Login

    Hourly Weather Oran

    Today, 25 November, Saturday

    Time Temperature Precipitation Wind Pressure Humidity
    00:00 +17°C° 0 mm 2 mps 755 mmHg 20%
    01:00 +16°C° 0 mm 2 mps 755 mmHg 20%
    02:00 +16°C° 0 mm 1 mps 754 mmHg 20%
    03:00 +16°C° 0 mm 1 mps 754 mmHg 20%
    04:00 +16°C° 0 mm 2 mps 754 mmHg 20%
    05:00 +15°C° 0 mm 2 mps 755 mmHg 19%
    06:00 +15°C° 0 mm 2 mps 755 mmHg 19%
    07:00 +17°C° 0 mm 2 mps 755 mmHg 18%
    08:00 +19°C° 0 mm 2 mps 755 mmHg 16%
    09:00 +21°C° 0 mm 2 mps 755 mmHg 14%
    10:00 +24°C° 0 mm 2 mps 755 mmHg 13%
    11:00 +25°C° 0 mm 2 mps 755 mmHg 13%
    12:00 +27°C° 0 mm 2 mps 755 mmHg 12%
    13:00 +27°C° 0 mm 2 mps 754 mmHg 12%
    14:00 +27°C° 0 mm 2 mps 754 mmHg 13%
    15:00 +27°C° 0 mm 3 mps 753 mmHg 13%
    16:00 +25°C° 0 mm 2 mps 754 mmHg 17%
    17:00 +23°C° 0 mm 2 mps 754 mmHg 20%
    18:00 +20°C° 0 mm 1 mps 754 mmHg 24%
    19:00 +20°C° 0 mm 1 mps 754 mmHg 24%
    20:00 +20°C° 0 mm 1 mps 755 mmHg 24%
    21:00 +20°C° 0 mm 1 mps 755 mmHg 24%
    22:00 +19°C° 0 mm 2 mps 755 mmHg 24%
    23:00 +19°C° 0 mm 2 mps 755 mmHg 24%

    Tomorrow, 26 November, Sunday

    Time Temperature Precipitation Wind Pressure Humidity
    00:00 +18°C° 0 mm 2 mps 755 mmHg 24%
    01:00 +18°C° 0 mm 2 mps 755 mmHg 26%
    02:00 +18°C° 0 mm 2 mps 755 mmHg 28%
    03:00 +18°C° 0 mm 2 mps 755 mmHg 30%
    04:00 +17°C° 0 mm 2 mps 755 mmHg 34%
    05:00 +17°C° 0 mm 2 mps 756 mmHg 37%
    06:00 +17°C° 0 mm 2 mps 756 mmHg 41%
    07:00 +18°C° 0 mm 3 mps 756 mmHg 41%
    08:00 +19°C° 0 mm 3 mps 757 mmHg 41%
    09:00 +20°C° 0 mm 3 mps 758 mmHg 41%
    10:00 +21°C° 0 mm 4 mps 758 mmHg 41%
    11:00 +22°C° 0 mm 4 mps 758 mmHg 41%
    12:00 +22°C° 0 mm 5 mps 758 mmHg 42%
    13:00 +22°C° 0 mm 5 mps 758 mmHg 46%
    14:00 +22°C° 0 mm 6 mps 758 mmHg 49%
    15:00 +21°C° 0 mm 6 mps 758 mmHg 53%
    16:00 +20°C° 0 mm 6 mps 758 mmHg 62%
    17:00 +19°C° 0 mm 6 mps 759 mmHg 70%
    18:00 +17°C° 0 mm 6 mps 759 mmHg 79%
    19:00 +16°C° 0 mm 5 mps 759 mmHg 81%
    20:00 +16°C° 0 mm 5 mps 760 mmHg 83%
    21:00 +15°C° 0 mm 5 mps 760 mmHg 86%
    22:00 +15°C° 0 mm 5 mps 760 mmHg 86%
    23:00 +15°C° 0 mm 4 mps 760 mmHg 87%

    Day after tomorrow, 27 November, Monday

    Time Temperature Precipitation Wind Pressure Humidity
    00:00 +14°C° 0 mm 4 mps 760 mmHg 88%
    01:00 +14°C° 0 mm 4 mps 760 mmHg 88%
    02:00 +14°C° 0 mm 4 mps 760 mmHg 88%
    03:00 +13°C° 0 mm 4 mps 759 mmHg 89%
    04:00 +13°C° 0 mm 4 mps 759 mmHg 88%
    05:00 +13°C° 0 mm 5 mps 759 mmHg 88%
    06:00 +13°C° 0 mm 5 mps 759 mmHg 88%
    07:00 +14°C° 0 mm 5 mps 759 mmHg 83%
    08:00 +15°C° 0 mm 5 mps 760 mmHg 77%
    09:00 +16°C° 0 mm 5 mps 760 mmHg 71%
    10:00 +18°C° 0 mm 4 mps 760 mmHg 64%
    11:00 +19°C° 0 mm 4 mps 759 mmHg 57%
    12:00 +20°C° 0 mm 4 mps 759 mmHg 51%
    13:00 +20°C° 0 mm 4 mps 759 mmHg 49%
    14:00 +20°C° 0 mm 4 mps 758 mmHg 48%
    15:00 +21°C° 0 mm 4 mps 758 mmHg 47%
    16:00 +20°C° 0 mm 4 mps 758 mmHg 51%
    17:00 +18°C° 0 mm 4 mps 758 mmHg 55%
    18:00 +17°C° 0 mm 4 mps 758 mmHg 59%
    19:00 +17°C° 0 mm 4 mps 758 mmHg 61%
    20:00 +16°C° 0 mm 3 mps 758 mmHg 63%
    21:00 +16°C° 0 mm 3 mps 758 mmHg 65%
    22:00 +16°C° 0 mm 2 mps 757 mmHg 66%
    23:00 +15°C° 0 mm 2 mps 757 mmHg 66%

    28 November, Tuesday

    Time Temperature Precipitation Wind Pressure Humidity
    00:00 +15°C° 0 mm 1 mps 757 mmHg 67%
    01:00 +15°C° 0 mm 1 mps 756 mmHg 69%
    02:00 +14°C° 0 mm 1 mps 756 mmHg 70%
    03:00 +14°C° 0 mm 1 mps 755 mmHg 71%
    04:00 +14°C° 0 mm 1 mps 755 mmHg 72%
    05:00 +14°C° 0 mm 1 mps 755 mmHg 73%
    06:00 +14°C° 0 mm 1 mps 755 mmHg 73%
    07:00 +15°C° 0 mm 1 mps 755 mmHg 67%
    08:00 +18°C° 0 mm 1 mps 755 mmHg 60%
    09:00 +19°C° 0 mm 1 mps 755 mmHg 53%
    10:00 +21°C° 0 mm 1 mps 754 mmHg 50%
    11:00 +22°C° 0 mm 1 mps 753 mmHg 46%
    12:00 +23°C° 0 mm 1 mps 753 mmHg 43%
    13:00 +23°C° 0 mm 1 mps 752 mmHg 43%
    14:00 +23°C° 0 mm 2 mps 752 mmHg 43%
    15:00 +24°C° 0 mm 2 mps 751 mmHg 42%
    16:00 +22°C° 0 mm 1 mps 751 mmHg 47%
    17:00 +21°C° 0 mm 1 mps 751 mmHg 52%
    18:00 +18°C° 0 mm 0 mps 751 mmHg 57%
    19:00 +20°C° 0 mm 1 mps 751 mmHg 56%
    20:00 +19°C° 0 mm 2 mps 751 mmHg 54%
    21:00 +19°C° 0 mm 2 mps 751 mmHg 52%
    22:00 +20°C° 0.1 mm 2 mps 750 mmHg 52%
    23:00 +20°C° 0.1 mm 3 mps 750 mmHg 51%

    29 November, Wednesday

    Time Temperature Precipitation Wind Pressure Humidity
    00:00 +20°C° 0.1 mm 3 mps 749 mmHg 50%
    01:00 +20°C° 0 mm 3 mps 749 mmHg 52%
    02:00 +20°C° 0 mm 3 mps 748 mmHg 54%
    03:00 +19°C° 0 mm 4 mps 747 mmHg 56%
    04:00 +19°C° 0 mm 4 mps 747 mmHg 54%
    05:00 +19°C° 0 mm 5 mps 747 mmHg 52%
    06:00 +19°C° 0 mm 5 mps 746 mmHg 50%
    07:00 +21°C° 0 mm 5 mps 746 mmHg 46%
    08:00 +22°C° 0 mm 6 mps 746 mmHg 42%
    09:00 +24°C° 0 mm 6 mps 746 mmHg 38%
    10:00 +26°C° 0 mm 8 mps 746 mmHg 34%
    11:00 +27°C° 0 mm 9 mps 745 mmHg 29%
    12:00 +28°C° 0 mm 11 mps 745 mmHg 24%
    13:00 +28°C° 0 mm 11 mps 745 mmHg 27%
    14:00 +28°C° 0 mm 10 mps 744 mmHg 29%
    15:00 +27°C° 0 mm 10 mps 744 mmHg 31%
    16:00 +24°C° 0 mm 9 mps 744 mmHg 38%
    17:00 +23°C° 0 mm 7 mps 744 mmHg 46%
    18:00 +21°C° 0 mm 6 mps 744 mmHg 54%
    19:00 +21°C° 0 mm 6 mps 744 mmHg 55%
    20:00 +21°C° 0 mm 7 mps 745 mmHg 57%
    21:00 +21°C° 0 mm 7 mps 745 mmHg 59%
    22:00 +21°C° 0.1 mm 7 mps 745 mmHg 60%
    23:00 +21°C° 0.1 mm 8 mps 745 mmHg 61%

    30 November, Thursday

    Time Temperature Precipitation Wind Pressure Humidity
    00:00 +20°C° 0.1 mm 8 mps 745 mmHg 62%
    01:00 +20°C° 0.2 mm 8 mps 745 mmHg 64%
    02:00 +20°C° 0.2 mm 8 mps 745 mmHg 65%
    03:00 +20°C° 0.2 mm 8 mps 744 mmHg 66%
    04:00 +18°C° 1 mm 8 mps 745 mmHg 70%
    05:00 +18°C° 1 mm 8 mps 745 mmHg 74%
    06:00 +17°C° 1 mm 8 mps 745 mmHg 78%
    07:00 +17°C° 0.9 mm 8 mps 746 mmHg 78%
    08:00 +17°C° 0.9 mm 7 mps 746 mmHg 78%
    09:00 +17°C° 0.9 mm 6 mps 747 mmHg 78%
    10:00 +17°C° 0.5 mm 6 mps 747 mmHg 78%
    11:00 +17°C° 0.5 mm 6 mps 747 mmHg 79%
    12:00 +17°C° 0.5 mm 5 mps 747 mmHg 79%
    13:00 +17°C° 0.5 mm 5 mps 747 mmHg 80%
    14:00 +16°C° 0.5 mm 5 mps 747 mmHg 81%
    15:00 +16°C° 0.5 mm 5 mps 747 mmHg 82%
    16:00 +16°C° 0.5 mm 5 mps 748 mmHg 81%
    17:00 +16°C° 0.5 mm 5 mps 748 mmHg 80%
    18:00 +15°C° 0.5 mm 5 mps 749 mmHg 80%
    19:00 +15°C° 0.2 mm 5 mps 749 mmHg 80%
    20:00 +15°C° 0.2 mm 5 mps 750 mmHg 80%
    21:00 +15°C° 0.2 mm 5 mps 751 mmHg 80%
    22:00 +14°C° 0.3 mm 5 mps 751 mmHg 81%
    23:00 +13°C° 0.3 mm 5 mps 751 mmHg 83%
    Show more